Weather History for Kalamazoo, MI

Change the Weather History Date:

Monday, April 22, 2013

  Actual Average Record
Temperature  
Mean Temperature 48 °F 52 °F  
Max Temperature 64 °F 63 °F 84 °F (1960)
Min Temperature 32 °F 41 °F 24 °F (1986)
Degree Days  
Heating Degree Days 17 14  
Month to date heating degree days 460 388  
Since 1 July heating degree days 6030 6045  
Cooling Degree Days 0 0  
Month to date cooling degree days 0 0  
Year to date cooling degree days 0 0  
Moisture  
Dew Point 29 °F    
Average Humidity 54    
Maximum Humidity 82    
Minimum Humidity 25    
Precipitation  
Precipitation 0.00 in 0.09 in 2.47 in (1999)
Month to date precipitation 4.99 2.13  
Year to date precipitation 10.33 7.62  
Sea Level Pressure  
Sea Level Pressure 30.29 in    
Wind  
Wind Speed 6 mph (SE)    
Max Wind Speed 16 mph    
Max Gust Speed 20 mph    
Visibility 10 miles    
Events      
T = Trace of Precipitation, MM = Missing Value Source: NWS Daily Summary

Daily Weather History Graph

Daily Weather History Graph

Search for Another Location

Airport:

Trip Planner

Search our weather history database for the weather conditions in past years. The results will help you decide how hot, cold, wet, or windy it might be!

Date:

Astronomy

Apr. 22, 2013 Rise Set
Actual Time 6:50 AM EDT 8:31 PM EDT
Civil Twilight 6:20 AM EDT 9:01 PM EDT
Nautical Twilight 5:44 AM EDT 9:37 PM EDT
Astronomical Twilight 5:05 AM EDT 10:16 PM EDT
Moon 5:16 PM EDT (4/22) 4:48 AM EDT (4/22)
Length of Visible Light 14h 41m
Length of Day
13h 41m
Waxing Gibbous, 87% of the Moon is Illuminated
Apr 22
Waxing Gibbous
Apr 25
Full
May 2
Last Quarter
May 9
New
May 18
First Quarter

Hourly Weather History & Observations

Time (EDT) Temp. Windchill Dew Point Humidity Pressure Visibility Wind Dir Wind Speed Gust Speed Precip Events Conditions
12:53 AM 39.0 °F 31.8 °F 30.0 °F 70% 30.43 in 10.0 mi SE 11.5 mph - N/A   Clear
1:53 AM 37.0 °F 31.6 °F 28.0 °F 70% 30.42 in 10.0 mi SE 6.9 mph - N/A   Clear
2:53 AM 37.0 °F 32.4 °F 28.0 °F 70% 30.40 in 10.0 mi SSE 5.8 mph - N/A   Clear
3:53 AM 36.0 °F 32.1 °F 28.0 °F 73% 30.38 in 10.0 mi SSE 4.6 mph - N/A   Clear
4:53 AM 35.1 °F 31.0 °F 28.0 °F 76% 30.38 in 10.0 mi SSE 4.6 mph - N/A   Clear
5:53 AM 35.1 °F 32.2 °F 28.0 °F 76% 30.37 in 10.0 mi SSE 3.5 mph - N/A   Clear
6:53 AM 34.0 °F - 28.0 °F 79% 30.37 in 10.0 mi Calm Calm - N/A   Clear
7:53 AM 36.0 °F - 28.9 °F 76% 30.38 in 10.0 mi Calm Calm - N/A   Clear
8:53 AM 42.1 °F 38.4 °F 30.0 °F 62% 30.38 in 10.0 mi SSE 5.8 mph - N/A   Clear
9:53 AM 46.9 °F - 28.9 °F 50% 30.36 in 10.0 mi South 8.1 mph - N/A   Clear
10:53 AM 52.0 °F - 30.0 °F 43% 30.34 in 10.0 mi SSE 5.8 mph - N/A   Clear
11:53 AM 55.9 °F - 30.0 °F 37% 30.34 in 10.0 mi Variable 6.9 mph - N/A   Clear
12:53 PM 59.0 °F - 28.0 °F 31% 30.32 in - East 5.8 mph - N/A   Clear
1:53 PM 60.1 °F - 27.0 °F 28% 30.29 in 10.0 mi SSE 10.4 mph 16.1 mph N/A   Clear
2:53 PM 61.0 °F - 26.1 °F 26% 30.27 in 10.0 mi South 9.2 mph 16.1 mph N/A   Clear
3:53 PM 63.0 °F - 27.0 °F 26% 30.25 in 10.0 mi SSE 6.9 mph - N/A   Clear
4:53 PM 63.0 °F - 28.0 °F 27% 30.22 in 10.0 mi SSE 10.4 mph - N/A   Clear
5:53 PM 63.0 °F - 26.1 °F 25% 30.18 in 10.0 mi SE 10.4 mph 16.1 mph N/A   Clear
6:53 PM 62.1 °F - 27.0 °F 26% 30.17 in 10.0 mi SSE 8.1 mph - N/A   Clear
7:53 PM 61.0 °F - 28.0 °F 29% 30.16 in 10.0 mi SE 6.9 mph - N/A   Clear
8:53 PM 57.0 °F - 28.9 °F 34% 30.16 in 10.0 mi SE 5.8 mph - N/A   Clear
9:53 PM 53.1 °F - 30.0 °F 41% 30.16 in 10.0 mi ESE 4.6 mph - N/A   Clear
10:53 PM 54.0 °F - 32.0 °F 43% 30.16 in 10.0 mi SE 9.2 mph - N/A   Clear
11:53 PM 51.1 °F - 33.1 °F 50% 30.15 in 10.0 mi SE 8.1 mph - N/A   Clear